Location: Austin
(30.3000°N, 97.7500°W)
Time: 03:33:47
(UTC-05:00)

Milstar 3 - Pass Details

Date: 10 May 2025
Orbit: 1097 x 5147 km, 28.2° (Epoch: 11 May)

Event Time Altitude Azimuth Distance (km) Brightness Sun altitude
Exits shadow 03:56:15 39° 158° (SSE) 1,930 3.7 -30.1°
Drops below altitude 10° 04:02:28 10° 94° (E) 3,018 5.5 -29.2°
Sets 04:05:04 0° 86° (E) 3,908 6.3 -28.8°
